When you browse on this site, cookies collect data to enhance your experience and personalize the content and advertising you see.
Visit our Privacy Policy to learn more. By continuing to use the site, you agree to this use of cookies and data.
  • In Slovakia
  • List of Countries
  • For 7 days
  • Water Temperature
  • Weather Map
  • Weather Widgets
  • user-avatar
    Login

    Hourly Weather Inverness

    Today, 24 October, Thursday

    Time Temperature Precipitation Wind Pressure Humidity
    00:00 +10°C° 0.1 mm 2 mps 744 mmHg 92%
    01:00 +9°C° 0 mm 2 mps 743 mmHg 93%
    02:00 +9°C° 0 mm 2 mps 743 mmHg 93%
    03:00 +9°C° 0 mm 2 mps 742 mmHg 94%
    04:00 +8°C° 0 mm 3 mps 742 mmHg 93%
    05:00 +8°C° 0 mm 3 mps 742 mmHg 93%
    06:00 +8°C° 0 mm 3 mps 742 mmHg 93%
    07:00 +8°C° 0 mm 3 mps 742 mmHg 90%
    08:00 +9°C° 0 mm 3 mps 742 mmHg 88%
    09:00 +9°C° 0 mm 3 mps 742 mmHg 85%
    10:00 +10°C° 0.1 mm 4 mps 742 mmHg 82%
    11:00 +9°C° 0.1 mm 5 mps 742 mmHg 79%
    12:00 +10°C° 0.1 mm 6 mps 742 mmHg 76%
    13:00 +9°C° 0.1 mm 6 mps 742 mmHg 74%
    14:00 +8°C° 0.1 mm 7 mps 743 mmHg 72%
    15:00 +6°C° 0.1 mm 8 mps 743 mmHg 71%
    16:00 +5°C° 0 mm 7 mps 744 mmHg 75%
    17:00 +5°C° 0 mm 5 mps 744 mmHg 78%
    18:00 +3°C° 0 mm 4 mps 745 mmHg 82%
    19:00 +3°C° 0 mm 4 mps 745 mmHg 83%
    20:00 +3°C° 0 mm 4 mps 745 mmHg 84%
    21:00 +1°C° 0 mm 5 mps 746 mmHg 85%
    22:00 +1°C° 0.1 mm 5 mps 746 mmHg 86%
    23:00 +1°C° 0.1 mm 5 mps 747 mmHg 87%

    Tomorrow, 25 October, Friday

    Time Temperature Precipitation Wind Pressure Humidity
    00:00 +1°C° 0.1 mm 5 mps 747 mmHg 88%
    01:00 +1°C° 0.1 mm 5 mps 747 mmHg 86%
    02:00 +1°C° 0.1 mm 5 mps 746 mmHg 83%
    03:00 0°C° 0.1 mm 5 mps 746 mmHg 80%
    04:00 -1°C° 0.1 mm 6 mps 746 mmHg 81%
    05:00 -1°C° 0.1 mm 6 mps 746 mmHg 83%
    06:00 -1°C° 0.1 mm 6 mps 746 mmHg 85%
    07:00 0°C° 0 mm 7 mps 745 mmHg 81%
    08:00 +1°C° 0 mm 9 mps 745 mmHg 77%
    09:00 +2°C° 0 mm 10 mps 745 mmHg 73%
    10:00 +2°C° 0.1 mm 10 mps 746 mmHg 74%
    11:00 +3°C° 0.1 mm 10 mps 746 mmHg 75%
    12:00 +5°C° 0.1 mm 10 mps 747 mmHg 77%
    13:00 +5°C° 0.1 mm 9 mps 747 mmHg 76%
    14:00 +3°C° 0.1 mm 9 mps 747 mmHg 75%
    15:00 +4°C° 0.1 mm 8 mps 747 mmHg 74%
    16:00 +4°C° 0 mm 7 mps 747 mmHg 77%
    17:00 +3°C° 0 mm 6 mps 748 mmHg 81%
    18:00 +2°C° 0 mm 5 mps 748 mmHg 84%
    19:00 +2°C° 0 mm 5 mps 748 mmHg 86%
    20:00 +1°C° 0 mm 4 mps 748 mmHg 88%
    21:00 +2°C° 0 mm 3 mps 749 mmHg 90%
    22:00 +2°C° 0 mm 3 mps 748 mmHg 89%
    23:00 +2°C° 0 mm 3 mps 748 mmHg 89%

    Day after tomorrow, 26 October, Saturday

    Time Temperature Precipitation Wind Pressure Humidity
    00:00 +2°C° 0 mm 3 mps 748 mmHg 89%
    01:00 +2°C° 0 mm 3 mps 748 mmHg 89%
    02:00 +2°C° 0 mm 3 mps 748 mmHg 88%
    03:00 +1°C° 0 mm 4 mps 747 mmHg 88%
    04:00 +1°C° 0 mm 4 mps 747 mmHg 87%
    05:00 +1°C° 0 mm 4 mps 747 mmHg 85%
    06:00 +1°C° 0 mm 4 mps 747 mmHg 84%
    07:00 +3°C° 0 mm 3 mps 747 mmHg 82%
    08:00 +3°C° 0 mm 3 mps 747 mmHg 80%
    09:00 +4°C° 0 mm 3 mps 747 mmHg 78%
    10:00 +4°C° 0 mm 3 mps 747 mmHg 74%
    11:00 +5°C° 0 mm 4 mps 747 mmHg 71%
    12:00 +6°C° 0 mm 4 mps 747 mmHg 68%
    13:00 +6°C° 0 mm 4 mps 747 mmHg 71%
    14:00 +5°C° 0 mm 4 mps 746 mmHg 73%
    15:00 +5°C° 0 mm 4 mps 746 mmHg 76%
    16:00 +5°C° 0.1 mm 4 mps 747 mmHg 80%
    17:00 +4°C° 0.1 mm 4 mps 747 mmHg 85%
    18:00 +4°C° 0.1 mm 3 mps 747 mmHg 89%
    19:00 +4°C° 0 mm 4 mps 748 mmHg 90%
    20:00 +4°C° 0 mm 4 mps 748 mmHg 91%
    21:00 +4°C° 0 mm 4 mps 748 mmHg 91%
    22:00 +3°C° 0 mm 5 mps 749 mmHg 90%
    23:00 +3°C° 0 mm 5 mps 749 mmHg 88%

    , 27 October, Sunday

    Time Temperature Precipitation Wind Pressure Humidity
    00:00 +3°C° 0 mm 6 mps 749 mmHg 86%
    01:00 +3°C° 0.6 mm 5 mps 750 mmHg 89%
    02:00 +2°C° 0.6 mm 5 mps 750 mmHg 91%
    03:00 +3°C° 0.6 mm 4 mps 750 mmHg 94%
    04:00 +3°C° 0 mm 4 mps 751 mmHg 93%
    05:00 +3°C° 0 mm 4 mps 752 mmHg 93%
    06:00 +3°C° 0 mm 4 mps 752 mmHg 93%
    07:00 +3°C° 0.2 mm 4 mps 753 mmHg 92%
    08:00 +4°C° 0.2 mm 4 mps 754 mmHg 92%
    09:00 +4°C° 0.2 mm 4 mps 755 mmHg 91%
    10:00 +4°C° 0.3 mm 4 mps 756 mmHg 89%
    11:00 +5°C° 0.3 mm 4 mps 757 mmHg 88%
    12:00 +5°C° 0.3 mm 5 mps 758 mmHg 86%
    13:00 +5°C° 0.2 mm 4 mps 759 mmHg 85%
    14:00 +5°C° 0.2 mm 4 mps 759 mmHg 83%
    15:00 +5°C° 0.2 mm 4 mps 760 mmHg 82%
    16:00 +4°C° 0.1 mm 4 mps 761 mmHg 84%
    17:00 +3°C° 0.1 mm 3 mps 761 mmHg 86%
    18:00 +2°C° 0.1 mm 3 mps 762 mmHg 88%
    19:00 +2°C° 0 mm 3 mps 763 mmHg 89%
    20:00 +3°C° 0 mm 2 mps 764 mmHg 89%
    21:00 +2°C° 0 mm 2 mps 764 mmHg 89%
    22:00 +2°C° 0 mm 2 mps 765 mmHg 90%
    23:00 +2°C° 0 mm 2 mps 765 mmHg 91%

    27 October, Sunday

    Time Temperature Precipitation Wind Pressure Humidity
    00:00 +3°C° 0 mm 6 mps 749 mmHg 86%
    01:00 +3°C° 0.6 mm 5 mps 750 mmHg 89%
    02:00 +2°C° 0.6 mm 5 mps 750 mmHg 91%
    03:00 +3°C° 0.6 mm 4 mps 750 mmHg 94%
    04:00 +3°C° 0 mm 4 mps 751 mmHg 93%
    05:00 +3°C° 0 mm 4 mps 752 mmHg 93%
    06:00 +3°C° 0 mm 4 mps 752 mmHg 93%
    07:00 +3°C° 0.2 mm 4 mps 753 mmHg 92%
    08:00 +4°C° 0.2 mm 4 mps 754 mmHg 92%
    09:00 +4°C° 0.2 mm 4 mps 755 mmHg 91%
    10:00 +4°C° 0.3 mm 4 mps 756 mmHg 89%
    11:00 +5°C° 0.3 mm 4 mps 757 mmHg 88%
    12:00 +5°C° 0.3 mm 5 mps 758 mmHg 86%
    13:00 +5°C° 0.2 mm 4 mps 759 mmHg 85%
    14:00 +5°C° 0.2 mm 4 mps 759 mmHg 83%
    15:00 +5°C° 0.2 mm 4 mps 760 mmHg 82%
    16:00 +4°C° 0.1 mm 4 mps 761 mmHg 84%
    17:00 +3°C° 0.1 mm 3 mps 761 mmHg 86%
    18:00 +2°C° 0.1 mm 3 mps 762 mmHg 88%
    19:00 +2°C° 0 mm 3 mps 763 mmHg 89%
    20:00 +3°C° 0 mm 2 mps 764 mmHg 89%
    21:00 +2°C° 0 mm 2 mps 764 mmHg 89%
    22:00 +2°C° 0 mm 2 mps 765 mmHg 90%
    23:00 +2°C° 0 mm 2 mps 765 mmHg 91%

    28 October, Monday

    Time Temperature Precipitation Wind Pressure Humidity
    00:00 +2°C° 0 mm 2 mps 765 mmHg 92%
    01:00 +2°C° 0 mm 2 mps 766 mmHg 93%
    02:00 +2°C° 0 mm 2 mps 766 mmHg 94%
    03:00 +2°C° 0 mm 2 mps 766 mmHg 95%
    04:00 +2°C° 0 mm 2 mps 766 mmHg 95%
    05:00 +2°C° 0 mm 2 mps 767 mmHg 95%
    06:00 +1°C° 0 mm 2 mps 767 mmHg 95%
    07:00 +2°C° 0 mm 2 mps 767 mmHg 94%
    08:00 +2°C° 0 mm 2 mps 767 mmHg 93%
    09:00 +3°C° 0 mm 2 mps 768 mmHg 91%
    10:00 +4°C° 0 mm 2 mps 768 mmHg 88%
    11:00 +5°C° 0 mm 2 mps 768 mmHg 84%
    12:00 +5°C° 0 mm 3 mps 768 mmHg 80%
    13:00 +5°C° 0.1 mm 3 mps 768 mmHg 80%
    14:00 +5°C° 0.1 mm 3 mps 768 mmHg 80%
    15:00 +6°C° 0.1 mm 2 mps 768 mmHg 80%
    16:00 +5°C° 0 mm 2 mps 768 mmHg 83%
    17:00 +4°C° 0 mm 2 mps 768 mmHg 86%
    18:00 +3°C° 0 mm 2 mps 768 mmHg 89%
    19:00 +3°C° 0 mm 2 mps 769 mmHg 88%
    20:00 +4°C° 0 mm 1 mps 769 mmHg 87%
    21:00 +4°C° 0 mm 1 mps 769 mmHg 87%
    22:00 +4°C° 0 mm 1 mps 769 mmHg 87%
    23:00 +4°C° 0 mm 1 mps 769 mmHg 88%

    29 October, Tuesday

    Time Temperature Precipitation Wind Pressure Humidity
    00:00 +4°C° 0 mm 1 mps 770 mmHg 88%
    01:00 +4°C° 0 mm 1 mps 770 mmHg 88%
    02:00 +4°C° 0 mm 1 mps 770 mmHg 88%
    03:00 +5°C° 0 mm 1 mps 770 mmHg 88%
    04:00 +4°C° 0 mm 1 mps 770 mmHg 88%
    05:00 +4°C° 0 mm 1 mps 771 mmHg 89%
    06:00 +4°C° 0 mm 1 mps 771 mmHg 89%
    07:00 +5°C° 0 mm 1 mps 771 mmHg 88%
    08:00 +5°C° 0 mm 1 mps 772 mmHg 87%
    09:00 +5°C° 0 mm 1 mps 772 mmHg 86%
    10:00 +5°C° 0 mm 2 mps 772 mmHg 82%
    11:00 +6°C° 0 mm 2 mps 772 mmHg 78%
    12:00 +7°C° 0 mm 3 mps 773 mmHg 73%
    13:00 +7°C° 0 mm 2 mps 773 mmHg 75%
    14:00 +7°C° 0 mm 2 mps 773 mmHg 76%
    15:00 +6°C° 0 mm 2 mps 773 mmHg 78%
    16:00 +6°C° 0 mm 1 mps 773 mmHg 81%
    17:00 +5°C° 0 mm 1 mps 773 mmHg 84%
    18:00 +4°C° 0 mm 1 mps 774 mmHg 87%
    19:00 +4°C° 0 mm 1 mps 774 mmHg 87%
    20:00 +4°C° 0 mm 1 mps 774 mmHg 87%
    21:00 +4°C° 0 mm 1 mps 775 mmHg 88%
    22:00 +4°C° 0 mm 1 mps 775 mmHg 88%
    23:00 +3°C° 0 mm 1 mps 775 mmHg 88%
    Show more